Location: Appeville
(49.3218°N, 1.3427°W)
Time: 12:51:06
(UTC+00:00)

Meteor 2-4 Rocket - Pass Details

Date: 08 December 2019
Orbit: 798 x 909 km, 81.2° (Epoch: 16 January)

Event Time Altitude Azimuth Distance (km) Brightness Sun altitude
Rises 06:29:36 0° 346° (NNW) 3,429 6.5 -12.0°
Reaches altitude 10° 06:32:04 10° 345° (NNW) 2,472 5.8 -11.6°
Maximum altitude 06:37:38 74° 262° (W) 862 3.6 -10.8°
Drops below altitude 10° 06:43:01 10° 178° (S) 2,391 6.4 -9.9°
Sets 06:45:22 0° 176° (S) 3,308 7.2 -9.6°
